VK3AFQ-13 Weather Reports


time (UTC)temp
F
wind
direction
speed
knots
gust
knots
rain 1hr
in
rain 24hr
in
rain mn
in
humidity
%
barometer
mb
20260504034604 65 128 3.5 8.7 0.00 0.00 0.00 65 1012.5
20260504033104 65 129 3.5 7.8 0.00 0.00 0.00 65 1012.7
20260504031604 65 128 3.5 9.6 0.00 0.00 0.00 65 1012.9
20260504024603 64 128 5.2 7.8 0.00 0.00 0.00 66 1013.4
20260504023103 64 128 5.2 12.2 0.00 0.00 0.00 66 1013.5
20260504021604 63 128 3.5 7.8 0.00 0.00 0.00 69 1013.5
20260504014604 63 128 2.6 8.7 0.00 0.00 0.00 68 1013.7
20260504013103 62 128 3.5 7.0 0.00 0.00 0.00 70 1013.9
20260504011603 62 128 1.7 7.0 0.00 0.00 0.00 71 1014.1
20260504004604 62 128 5.2 7.0 0.00 0.00 0.00 69 1014.2
20260504003104 62 128 2.6 7.8 0.00 0.00 0.00 72 1014.2
20260504001603 61 128 4.3 7.8 0.00 0.00 0.00 73 1014.2
20260503234604 59 128 3.5 8.7 0.00 0.00 0.00 73 1014.1
20260503233104 59 128 2.6 6.1 0.00 0.00 0.00 74 1014.2
20260503231604 58 128 2.6 7.0 0.00 0.00 0.00 76 1014.2
20260503224603 55 128 5.2 7.0 0.00 0.00 0.00 81 1014.1
20260503223103 54 128 3.5 5.2 0.00 0.00 0.00 81 1014.0
20260503221603 53 128 1.7 4.3 0.00 0.00 0.00 82 1014.1
20260503214604 51 128 0.0 1.7 0.00 0.00 0.00 85 1013.9
20260503213104 50 0 0.0 1.7 0.00 0.00 0.00 85 1013.8
20260503211604 50 0 0.0 2.6 0.00 0.00 0.00 85 1013.5
20260503204603 51 128 1.7 2.6 0.00 0.00 0.00 84 1013.2
20260503203103 51 128 2.6 3.5 0.00 0.00 0.00 84 1013.0
20260503201603 51 129 0.9 3.5 0.00 0.00 0.00 84 1012.8
20260503194604 51 0 0.0 2.6 0.00 0.00 0.00 84 1012.8
20260503193103 51 128 1.7 2.6 0.00 0.00 0.00 84 1012.8
20260503191604 51 128 0.9 1.7 0.00 0.00 0.00 85 1012.8
20260503184604 51 128 2.6 3.5 0.00 0.00 0.00 85 1012.7
20260503183103 51 128 0.9 2.6 0.00 0.00 0.00 86 1012.9
20260503181604 50 0 0.0 2.6 0.00 0.00 0.00 88 1012.7
20260503174603 50 129 0.9 1.7 0.00 0.00 0.00 88 1012.5
20260503173103 50 128 0.0 1.7 0.00 0.00 0.00 88 1012.8
20260503171604 50 128 0.9 2.6 0.00 0.00 0.00 88 1012.9
20260503081604 61 0 0.0 0.0 0.00 0.00 0.00 73 1013.1
20260503071603 64 128 1.7 3.5 0.00 0.00 0.00 68 1012.7
20260503054604 64 128 1.7 4.3 0.00 0.00 0.00 74 1012.8
20260503053104 65 128 1.7 5.2 0.00 0.00 0.00 73 1012.8
20260503051604 64 128 1.7 6.1 0.00 0.00 0.00 75 1012.7
20260503044604 64 128 2.6 5.2 0.00 0.00 0.00 76 1012.7
20260503043104 63 128 0.9 5.2 0.00 0.00 0.00 80 1012.8
20260503041604 62 128 0.9 5.2 0.00 0.00 0.00 82 1012.8